CAPE
0 0 1 1 4 14 3 5 17 12 10 2 0 0 0 0 0 0 0 0 0 0 0 0 0 0 0 61 122 118 106 77 67 89 31 13 24 20
0 0 0 0 4 8 15 0 4 29 15 23 0 0 0 0 0 0 0 0 0 0 0 0 0 0 0 6 0 54 57 60 83 66 15 5 1 0
0 0 0 0 1 7 11 12 5 6 12 0 11 0 1 0 0 0 0 0 0 0 1 1 0 0 0 0 1 3 6 23 66 18 21 7 6 7
0 0 0 0 0 0 2 0 3 9 7 13 23 0 0 0 0 0 0 0 0 0 0 0 0 0 0 0 0 0 0 1 4 24 12 12 12 15
1 0 0 0 0 0 4 3 0 5 10 13 11 0 0 0 0 0 0 0 0 1 1 0 0 0 0 0 0 0 0 0 2 7 14 10 12 11
3 0 0 0 0 0 0 5 7 5 4 6 0 0 0 0 0 0 0 0 0 0 1 2 1 0 0 0 0 0 0 0 4 11 9 5 5 4
9 11 14 12 4 8 7 7 9 11 21 5 7 0 0 0 0 0 0 0 0 0 0 0 0 0 0 2 0 0 1 6 9 8 6 4 5 2
2 0 9 16 15 7 15 12 16 7 11 7 4 3 0 0 0 0 0 0 0 0 0 0 0 0 0 0 8 6 11 10 10 7 6 6 1 0
17 5 2 13 18 9 12 14 11 22 26 6 5 5 3 0 0 0 0 0 0 0 0 0 0 0 0 2 7 9 10 10 10 10 7 3 0 0
1 0 1 7 20 17 9 8 8 7 10 15 8 1 2 6 0 0 0 0 0 0 0 0 0 0 0 1 10 12 9 9 9 5 2 0 0 0
0 4 0 0 11 36 17 10 5 2 10 28 22 13 13 19 0 0 0 0 0 0 0 0 0 0 0 0 1 6 6 6 4 1 0 0 0 0
9 9 9 13 31 35 25 12 7 5 6 2 2 1 0 0 1 0 0 0 0 0 0 0 0 0 0 0 0 0 0 6 2 0 0 0 0 0
21 15 12 21 30 39 56 22 10 1 6 0 0 0 0 0 1 0 0 0 0 0 0 0 0 0 0 0 0 0 0 0 0 0 0 0 0 0
22 26 25 49 43 35 31 46 53 34 5 0 0 0 0 0 0 0 0 0 0 0 0 0 0 0 0 0 0 0 0 0 0 0 0 0 0 0
15 13 47 49 52 35 30 38 46 24 18 0 0 0 0 0 0 0 0 0 0 0 0 0 0 0 0 0 0 0 0 0 0 0 0 0 0 0
6 7 18 21 31 28 24 9 2 5 3 0 0 0 0 0 0 0 0 0 0 0 0 0 0 0 0 0 0 0 0 0 0 0 0 0 0 0
6 1 0 0 2 1 2 2 0 0 14 0 0 0 0 0 0 0 0 0 0 0 0 0 0 0 0 0 0 0 0 0 0 0 0 0 0 0
2 2 0 0 0 1 2 2 0 3 0 0 0 0 0 0 0 0 0 0 0 0 0 0 0 0 0 0 0 0 0 0 0 0 0 0 0 0
1 0 0 0 0 0 0 0 0 0 0 0 0 0 0 0 0 0 0 0 0 0 0 0 0 0 0 0 0 0 0 0 0 0 0 0 0 0
0 0 0 0 0 0 0 0 0 0 0 0 0 0 0 0 0 0 0 0 0 0 0 0 0 0 0 0 0 0 0 0 0 0 0 0 0 0
0 0 0 0 0 0 0 0 0 0 0 0 0 0 0 0 0 0 0 1 0 0 0 0 0 0 0 0 0 0 0 0 0 0 0 0 0 0
0 0 0 0 0 0 0 0 0 0 0 0 0 0 0 0 0 0 0 0 0 0 0 0 0 0 0 0 0 0 0 0 0 0 0 0 0 0
0 0 0 0 0 0 0 0 0 0 0 0 0 0 0 0 0 0 0 0 0 0 0 0 0 0 0 0 0 0 0 0 0 0 0 0 0 0
CIN
-0 -0 -1 -0 -3 -4 -9 -1 -0 -0 -0 -4 -0 -0 -0 -0 -0 -0 -0 -0 -0 -0 -0 -0 -0 -0 -0 -0 -0 -0 -0 -0 -1 -0 -0 -0 -0 -1
-0 -0 -0 -0 -1 -3 -5 -1 -0 -0 -0 -3 -0 -0 -0 -0 -0 -0 -0 -0 -0 -0 -0 -0 -0 -0 -0 -29 -7 -0 -0 -0 -0 -0 -0 -0 -0 -0
-0 -0 -0 -0 -1 -2 -6 -4 -0 -0 -0 -0 -7 -0 -0 -0 -0 -0 -0 -0 -0 -0 -0 -0 -0 -0 -0 -0 -40 -10 -3 -3 -0 -5 -0 -0 -0 -0
-0 -0 -0 -0 -0 -0 -3 -2 -3 -0 -0 -0 -2 -0 -0 -0 -0 -0 -0 -0 -0 -0 -0 -0 -0 -0 -0 -0 -0 -0 -0 -0 -0 -0 -0 -0 -0 -0
-2 -0 -0 -0 -0 -0 -1 -3 -8 -0 -0 -0 -1 -0 -0 -0 -0 -0 -0 -0 -0 -0 -0 -0 -0 -0 -0 -0 -0 -0 -0 -0 -0 -0 -0 -0 -0 -0
-2 -2 -0 -0 -0 -0 -0 -2 -3 -3 -1 -0 -0 -0 -0 -0 -0 -0 -0 -0 -0 -0 -0 -0 -0 -0 -0 -0 -0 -0 -0 -0 -0 -0 -0 -0 -0 -0
-0 -0 -0 -2 -0 -1 -0 -1 -4 -1 -0 -0 -0 -0 -0 -0 -0 -0 -0 -0 -0 -0 -0 -0 -0 -0 -0 -0 -0 -0 -0 -0 -0 -0 -0 -0 -0 -0
-0 -1 -1 -4 -2 -0 -0 -0 -0 -4 -0 -0 -0 -0 -0 -0 -0 -0 -0 -0 -0 -0 -0 -0 -0 -0 -0 -0 -0 -0 -0 -0 -0 -0 -0 -0 -0 -0
-0 -1 -0 -0 -0 -4 -1 -0 -0 -0 -0 -1 -0 -0 -0 -0 -0 -0 -0 -0 -0 -0 -0 -0 -0 -0 -0 -0 -0 -0 -0 -0 -0 -0 -0 -0 -0 -0
-0 -0 -0 -0 -0 -1 -4 -1 -0 -2 -3 -1 -1 -1 -1 -2 -0 -0 -0 -0 -0 -0 -0 -0 -0 -0 -0 -0 -0 -0 -0 -0 -0 -0 -0 -0 -0 -0
-0 -0 -0 -0 -4 -0 -0 -1 -1 -1 -1 -0 -0 -3 -1 -0 -0 -0 -0 -0 -0 -0 -0 -0 -0 -0 -0 -0 -1 -0 -0 -0 -0 -0 -0 -0 -0 -0
-2 -0 -0 -0 -0 -0 -0 -0 -0 -3 -5 -4 -3 -4 -0 -0 -0 -0 -0 -0 -0 -0 -0 -0 -0 -0 -0 -0 -0 -0 -0 -0 -0 -0 -0 -0 -0 -0
-0 -0 -1 -1 -0 -0 -0 -0 -0 -15 -5 -1 -0 -0 -0 -0 -0 -0 -0 -0 -0 -0 -0 -0 -0 -0 -0 -0 -0 -0 -0 -0 -0 -0 -0 -0 -0 -0
-0 -0 -0 -0 -0 -0 -0 -0 -0 -0 -6 -0 -0 -0 -0 -0 -0 -0 -0 -0 -0 -0 -0 -0 -0 -0 -0 -0 -0 -0 -0 -0 -0 -0 -0 -0 -0 -0
-0 -0 -0 -0 -0 -0 -0 -0 -0 -1 -0 -0 -0 -0 -0 -0 -0 -0 -0 -0 -0 -0 -0 -0 -0 -0 -0 -0 -0 -0 -0 -0 -0 -0 -0 -0 -0 -0
-0 -0 -0 -0 -0 -0 -0 -1 -5 -4 -4 -2 -0 -0 -0 -0 -0 -0 -0 -0 -0 -0 -0 -0 -0 -0 -0 -0 -0 -0 -0 -0 -0 -0 -0 -0 -0 -0
-0 -0 -2 -0 -0 -0 -0 -0 -1 -0 -0 -0 -0 -0 -0 -0 -0 -0 -0 -0 -0 -0 -0 -0 -0 -0 -0 -0 -0 -0 -0 -0 -0 -0 -0 -0 -0 -0
-0 -0 -2 -0 -0 -0 -0 -0 -0 -0 -0 -0 -0 -0 -0 -0 -0 -0 -0 -0 -0 -0 -0 -0 -0 -0 -0 -0 -0 -0 -0 -0 -0 -0 -0 -0 -0 -0
-0 -0 -0 -0 -0 -0 -0 -0 -0 -0 -0 -0 -0 -0 -0 -0 -0 -0 -0 -0 -0 -0 -0 -0 -0 -0 -0 -0 -0 -0 -0 -0 -0 -0 -0 -0 -0 -0
-0 -0 -0 -0 -0 -0 -0 -0 -0 -0 -0 -0 -0 -0 -0 -0 -0 -0 -0 -0 -0 -0 -0 -0 -0 -0 -0 -0 -0 -0 -0 -0 -0 -0 -0 -0 -0 -0
-0 -0 -0 -0 -0 -0 -0 -0 -0 -0 -0 -0 -0 -0 -0 -0 -0 -0 -0 -0 -0 -0 -0 -0 -0 -0 -0 -0 -0 -0 -0 -0 -0 -0 -0 -0 -0 -0
-0 -0 -0 -0 -0 -0 -0 -0 -0 -0 -0 -0 -0 -0 -0 -0 -0 -0 -0 -0 -0 -0 -0 -0 -0 -0 -0 -0 -0 -0 -0 -0 -0 -0 -0 -0 -0 -0
-0 -0 -0 -0 -0 -0 -0 -0 -0 -0 -0 -0 -0 -0 -0 -0 -0 -0 -0 -0 -0 -0 -0 -0 -0 -0 -0 -0 -0 -0 -0 -0 -0 -0 -0 -0 -0 -0
Wind_Speed
7 6 6 6 6 5 4 6 7 4 5 4 4 2 2 3 0 2 2 3 3 3 4 6 6 7 7 19 27 29 28 25 23 24 25 22 19 14
6 6 6 6 6 5 4 5 7 7 5 2 2 3 1 2 0 3 3 3 3 3 2 3 4 5 7 7 22 26 24 21 22 25 26 24 21 16
6 7 8 6 6 5 6 4 6 6 7 7 3 2 3 3 2 3 2 1 2 3 5 5 5 8 10 11 13 19 24 25 25 29 29 26 22 18
10 8 8 6 7 6 5 6 6 6 6 8 3 1 3 1 3 3 2 2 3 4 5 7 6 8 10 12 18 28 28 30 30 28 26 25 21 18
10 10 9 8 8 6 6 5 4 5 6 5 5 2 1 2 2 3 3 3 4 10 9 6 3 7 10 11 18 25 30 30 28 25 25 24 22 19
10 10 10 10 9 8 7 8 5 5 7 6 7 2 2 2 2 1 3 3 4 5 11 15 20 18 9 12 16 24 28 29 29 27 24 23 21 19
11 11 11 12 16 13 7 7 7 6 5 5 5 3 3 3 4 3 3 2 3 3 4 7 7 8 10 17 18 22 25 26 27 27 25 23 20 17
11 11 11 16 15 19 19 20 13 7 8 6 5 4 3 3 3 5 4 3 2 3 3 5 5 7 7 9 20 21 24 26 26 25 23 21 19 16
12 11 11 9 15 10 14 17 17 19 18 9 8 7 6 3 5 6 4 3 3 2 6 4 5 7 4 9 20 20 22 22 22 22 20 18 17 14
14 14 13 11 11 12 10 10 10 10 11 9 10 10 9 4 8 6 5 6 6 3 2 4 3 4 4 6 18 18 19 20 20 19 18 16 15 12
13 13 14 14 17 21 13 11 10 10 11 14 13 12 11 12 9 7 6 8 3 2 2 5 2 4 4 4 4 15 16 19 18 16 16 14 12 10
11 12 20 17 21 22 13 11 11 10 9 9 8 11 13 11 16 12 10 9 5 2 4 6 5 4 3 2 2 3 6 16 15 13 12 11 11 4
8 8 9 21 22 22 22 12 11 10 12 8 7 6 5 5 7 8 10 9 7 2 9 6 5 4 3 4 2 1 3 6 4 5 10 9 9 7
10 8 11 22 22 22 17 18 22 19 6 7 6 6 5 6 6 5 6 5 4 4 14 7 7 6 6 4 4 2 2 3 4 3 3 6 7 4
9 14 19 20 22 20 22 20 19 9 9 9 7 4 2 4 8 9 9 11 11 8 7 3 7 9 3 6 8 4 5 2 3 3 3 3 2 1
17 13 13 15 16 11 12 13 8 6 6 6 5 4 5 5 6 5 8 8 8 7 9 7 10 8 5 7 9 8 5 4 4 3 3 3 2 3
14 8 7 7 7 7 8 8 8 7 8 6 6 6 6 6 4 6 8 5 6 7 7 7 12 13 9 8 7 7 5 4 3 3 3 2 2 2
3 5 6 7 8 8 9 9 10 12 8 8 7 8 8 8 7 6 6 8 10 9 10 9 12 13 8 10 11 7 4 3 2 3 2 3 2 0
4 3 4 5 5 6 7 8 9 9 11 9 9 9 9 8 11 8 8 9 9 9 9 9 9 10 11 5 2 7 4 2 3 2 2 2 3 2
2 3 3 3 3 3 3 4 6 10 10 10 10 10 10 10 10 9 9 11 11 10 8 5 3 5 7 8 6 1 8 4 3 2 2 2 2 3
2 1 1 2 3 3 4 5 7 8 10 10 10 10 10 11 10 9 10 16 17 11 10 7 2 13 9 7 7 3 3 9 5 3 3 3 2 2
1 1 1 2 3 4 5 7 8 9 10 10 10 10 10 10 11 12 12 12 10 9 8 6 6 4 4 5 9 5 3 2 6 12 10 6 5 2
3 3 3 4 4 4 6 7 8 9 9 10 10 10 11 11 11 11 11 11 12 11 11 7 4 6 5 7 11 3 6 3 2 3 5 11 10 8
Wind_Direction
268 268 272 271 267 246 253 259 268 288 299 284 243 10 43 91 109 67 56 38 341 355 339 310 340 310 290 225 209 207 195 191 190 187 173 161 158 163
269 261 272 277 274 264 239 261 266 254 261 329 342 16 30 82 93 87 53 337 334 7 347 313 311 316 277 242 234 193 192 186 180 172 161 152 148 155
280 278 276 276 277 263 239 244 275 279 250 266 228 201 219 162 98 59 56 341 289 305 272 254 236 254 240 229 218 178 176 168 166 170 155 152 154 159
280 275 272 277 275 276 260 248 257 271 290 282 236 165 229 109 97 84 33 30 27 304 252 231 222 244 248 239 213 184 173 162 157 159 154 151 155 153
276 273 270 263 263 261 262 247 258 279 281 280 277 143 255 138 81 67 39 18 31 23 40 37 212 248 256 248 204 189 165 149 149 149 144 144 144 146
271 264 259 256 256 257 260 253 237 257 270 256 269 202 189 132 117 159 91 32 32 12 41 44 62 53 49 108 113 132 133 137 136 133 132 134 141 143
265 264 266 257 259 260 264 262 226 242 256 261 283 194 159 157 171 167 94 101 45 19 37 24 46 53 56 64 90 111 119 125 123 126 131 137 141 141
262 260 258 263 260 260 264 262 250 231 245 253 264 286 269 163 139 151 126 132 117 16 59 40 36 51 58 79 91 102 114 116 124 129 138 143 143 142
267 264 262 257 258 246 254 262 263 259 250 250 252 251 278 203 157 163 146 126 130 124 110 46 11 62 17 106 117 118 118 122 129 132 136 142 135 136
269 266 264 257 248 249 242 243 250 249 246 241 240 243 245 229 195 181 154 108 79 68 70 97 357 52 27 89 114 118 123 127 131 135 141 134 131 131
267 263 259 255 247 248 244 238 238 245 246 243 244 258 256 237 176 132 148 145 112 157 89 111 150 87 32 33 86 122 133 131 136 140 131 124 126 126
261 250 259 254 245 247 242 232 232 231 230 231 234 253 253 246 197 181 167 163 119 102 199 102 146 139 104 356 34 65 135 133 132 127 126 127 128 107
265 257 246 248 253 250 241 226 224 222 229 223 221 221 228 231 197 191 180 170 151 153 167 117 150 138 88 132 87 62 103 115 96 116 134 133 134 131
266 260 259 240 238 246 246 243 231 227 207 211 215 221 222 220 180 156 143 100 67 121 162 129 143 157 137 128 144 130 79 89 105 94 98 105 96 115
266 265 256 249 243 241 241 240 239 223 214 205 206 200 158 130 122 102 90 89 69 81 129 124 142 141 117 128 142 137 126 136 109 118 110 102 130 125
261 264 252 249 247 230 228 233 228 215 209 198 176 123 122 134 144 135 127 119 96 77 60 84 119 126 103 114 128 137 122 148 138 119 110 107 103 100
244 235 227 224 227 222 224 215 207 202 203 166 146 142 142 136 126 128 130 125 121 140 115 85 85 82 72 108 116 121 121 110 114 124 98 97 86 100
274 234 220 218 221 223 213 205 198 199 188 158 157 153 151 144 136 124 122 125 128 129 125 129 120 104 90 60 63 117 87 96 96 104 98 103 95 70
246 226 219 208 213 213 206 200 196 190 159 160 157 153 146 143 143 138 125 125 123 126 125 136 134 130 124 109 80 57 115 110 109 77 83 107 137 188
257 241 215 189 184 170 159 155 154 152 157 153 149 147 149 144 139 136 135 135 130 124 113 94 100 138 129 152 134 68 105 100 107 110 117 75 79 34
292 272 195 163 155 142 136 133 139 144 144 141 140 141 142 139 133 129 128 134 130 128 126 125 153 120 110 105 87 58 19 90 98 136 141 100 97 20
353 44 77 105 126 130 128 129 129 129 128 128 129 130 130 132 131 131 132 130 127 121 110 103 111 95 65 108 119 112 103 18 82 85 84 115 149 139
14 42 54 71 86 103 113 118 119 118 119 121 121 122 124 124 123 119 118 116 122 121 122 112 85 74 81 115 117 100 104 77 64 55 14 66 61 45